Time,TemperatureF,DewpointF,PressureIn,WindDirection,WindDirectionDegrees,WindSpeedMPH,WindSpeedGustMPH,Humidity,HourlyPrecipIn,Conditions,Clouds,dailyrainin,SoftwareType,DateUTC
2013-06-10 00:02:00,63.0,-99.9,-100.00,South,191,1.0,-999.0,-999,0.00,,,0.53,,2013-06-10 05:02:00,
2013-06-10 00:12:00,63.0,-99.9,-100.00,South,191,1.0,-999.0,-999,0.00,,,0.53,,2013-06-10 05:12:00,
2013-06-10 00:22:00,63.0,-99.9,-100.00,South,191,1.0,-999.0,-999,0.00,,,0.53,,2013-06-10 05:22:00,
2013-06-10 00:32:00,63.0,-99.9,-100.00,SSW,193,2.0,-999.0,-999,0.00,,,0.53,,2013-06-10 05:32:00,
2013-06-10 00:42:00,63.0,-99.9,-100.00,SSW,193,2.0,-999.0,-999,0.00,,,0.53,,2013-06-10 05:42:00,
2013-06-10 00:52:00,63.0,-99.9,-100.00,SSW,193,2.0,-999.0,-999,0.00,,,0.53,,2013-06-10 05:52:00,
2013-06-10 01:02:00,63.0,-99.9,-100.00,SSE,168,3.0,-999.0,-999,0.00,,,0.53,,2013-06-10 06:02:00,
2013-06-10 01:12:00,63.0,-99.9,-100.00,SSE,168,3.0,-999.0,-999,0.00,,,0.53,,2013-06-10 06:12:00,
2013-06-10 01:22:00,63.0,-99.9,-100.00,SSE,168,3.0,-999.0,-999,0.00,,,0.53,,2013-06-10 06:22:00,
2013-06-10 01:32:00,63.0,-99.9,-100.00,SSE,158,2.0,-999.0,-999,0.00,,,0.53,,2013-06-10 06:32:00,
2013-06-10 01:42:00,63.0,-99.9,-100.00,SSE,158,2.0,-999.0,-999,0.00,,,0.53,,2013-06-10 06:42:00,
2013-06-10 01:53:00,63.0,-99.9,-100.00,SSE,163,2.0,-999.0,-999,0.00,,,0.53,,2013-06-10 06:53:00,
2013-06-10 02:03:00,63.0,-99.9,-100.00,SSE,163,2.0,-999.0,-999,0.00,,,0.53,,2013-06-10 07:03:00,
2013-06-10 02:12:00,63.0,-99.9,-100.00,SSE,163,2.0,-999.0,-999,0.00,,,0.53,,2013-06-10 07:12:00,
2013-06-10 02:22:00,63.0,-99.9,-100.00,SSE,163,2.0,-999.0,-999,0.00,,,0.53,,2013-06-10 07:22:00,
2013-06-10 02:32:00,64.0,-99.9,-100.00,SSE,159,2.0,-999.0,-999,0.00,,,0.53,,2013-06-10 07:32:00,
2013-06-10 02:42:00,64.0,-99.9,-100.00,SSE,159,2.0,-999.0,-999,0.00,,,0.53,,2013-06-10 07:42:00,
2013-06-10 02:52:00,64.0,-99.9,-100.00,SSE,159,2.0,-999.0,-999,0.00,,,0.53,,2013-06-10 07:52:00,
2013-06-10 03:02:00,64.0,-99.9,-100.00,SSE,150,2.0,-999.0,-999,0.00,,,0.53,,2013-06-10 08:02:00,
2013-06-10 03:12:00,64.0,-99.9,-100.00,SSE,150,2.0,-999.0,-999,0.00,,,0.53,,2013-06-10 08:12:00,
2013-06-10 03:22:00,64.0,-99.9,-100.00,SSE,150,2.0,-999.0,-999,0.00,,,0.53,,2013-06-10 08:22:00,
2013-06-10 03:32:00,63.0,-99.9,-100.00,South,169,1.0,-999.0,-999,0.00,,,0.53,,2013-06-10 08:32:00,
2013-06-10 03:42:00,63.0,-99.9,-100.00,South,169,1.0,-999.0,-999,0.00,,,0.53,,2013-06-10 08:42:00,
2013-06-10 03:52:00,63.0,-99.9,-100.00,SSE,163,2.0,-999.0,-999,0.00,,,0.53,,2013-06-10 08:52:00,
2013-06-10 04:02:00,63.0,-99.9,-100.00,SSE,163,2.0,-999.0,-999,0.00,,,0.53,,2013-06-10 09:02:00,
2013-06-10 04:12:00,63.0,-99.9,-100.00,SSE,163,2.0,-999.0,-999,0.00,,,0.53,,2013-06-10 09:12:00,
2013-06-10 04:22:00,63.0,-99.9,-100.00,SSE,163,2.0,-999.0,-999,0.00,,,0.53,,2013-06-10 09:22:00,
2013-06-10 04:33:00,64.0,-99.9,-100.00,SE,140,2.0,-999.0,-999,0.00,,,0.53,,2013-06-10 09:33:00,
2013-06-10 04:43:00,64.0,-99.9,-100.00,SE,140,2.0,-999.0,-999,0.00,,,0.53,,2013-06-10 09:43:00,
2013-06-10 04:54:00,64.0,-99.9,-100.00,SE,144,2.0,-999.0,-999,0.00,,,0.53,,2013-06-10 09:54:00,
2013-06-10 05:03:00,64.0,-99.9,-100.00,SE,144,2.0,-999.0,-999,0.00,,,0.53,,2013-06-10 10:03:00,
2013-06-10 05:13:00,64.0,-99.9,-100.00,SE,144,2.0,-999.0,-999,0.00,,,0.53,,2013-06-10 10:13:00,
2013-06-10 05:23:00,64.0,-99.9,-100.00,SE,144,2.0,-999.0,-999,0.00,,,0.53,,2013-06-10 10:23:00,
2013-06-10 05:33:00,63.0,-99.9,-100.00,SSE,164,2.0,-999.0,-999,0.00,,,0.53,,2013-06-10 10:33:00,
2013-06-10 05:42:00,63.0,-99.9,-100.00,SSE,164,2.0,-999.0,-999,0.00,,,0.53,,2013-06-10 10:42:00,
2013-06-10 05:52:00,64.0,-99.9,-100.00,SSE,158,2.0,-999.0,-999,0.00,,,0.53,,2013-06-10 10:52:00,
2013-06-10 06:03:00,64.0,-99.9,-100.00,SSE,158,2.0,-999.0,-999,0.00,,,0.53,,2013-06-10 11:03:00,
2013-06-10 06:12:00,64.0,-99.9,-100.00,SSE,158,2.0,-999.0,-999,0.00,,,0.53,,2013-06-10 11:12:00,
2013-06-10 06:22:00,64.0,-99.9,-100.00,SSE,158,2.0,-999.0,-999,0.00,,,0.53,,2013-06-10 11:22:00,
2013-06-10 06:32:00,64.0,-99.9,-100.00,SSE,164,1.0,-999.0,-999,0.00,,,0.53,,2013-06-10 11:32:00,
2013-06-10 06:42:00,64.0,-99.9,-100.00,SSE,164,1.0,-999.0,-999,0.00,,,0.53,,2013-06-10 11:42:00,
2013-06-10 06:52:00,64.0,-99.9,-100.00,SSE,164,1.0,-999.0,-999,0.00,,,0.53,,2013-06-10 11:52:00,
2013-06-10 07:02:00,64.0,-99.9,-100.00,SSW,198,2.0,-999.0,-999,0.00,,,0.53,,2013-06-10 12:02:00,
2013-06-10 07:12:00,64.0,-99.9,-100.00,SSW,198,2.0,-999.0,-999,0.00,,,0.53,,2013-06-10 12:12:00,
2013-06-10 07:22:00,64.0,-99.9,-100.00,SSW,198,2.0,-999.0,-999,0.00,,,0.53,,2013-06-10 12:22:00,
2013-06-10 07:33:00,65.0,-99.9,-100.00,SSW,205,1.0,-999.0,-999,0.00,,,0.53,,2013-06-10 12:33:00,
2013-06-10 07:42:00,65.0,-99.9,-100.00,SSW,205,1.0,-999.0,-999,0.00,,,0.53,,2013-06-10 12:42:00,
2013-06-10 07:52:00,65.0,-99.9,-100.00,SSW,205,1.0,-999.0,-999,0.00,,,0.53,,2013-06-10 12:52:00,
2013-06-10 08:02:00,65.0,-99.9,-100.00,SW,235,1.0,-999.0,-999,0.00,,,0.53,,2013-06-10 13:02:00,
2013-06-10 08:12:00,65.0,-99.9,-100.00,SW,235,1.0,-999.0,-999,0.00,,,0.53,,2013-06-10 13:12:00,
2013-06-10 08:22:00,65.0,-99.9,-100.00,SW,235,1.0,-999.0,-999,0.00,,,0.53,,2013-06-10 13:22:00,
2013-06-10 08:32:00,66.0,-99.9,-100.00,NW,317,4.0,-999.0,-999,0.00,,,0.53,,2013-06-10 13:32:00,
2013-06-10 08:43:00,66.0,-99.9,-100.00,NW,317,4.0,-999.0,-999,0.00,,,0.53,,2013-06-10 13:43:00,
2013-06-10 08:52:00,67.0,-99.9,-100.00,NW,306,4.0,-999.0,-999,0.00,,,0.53,,2013-06-10 13:52:00,
2013-06-10 09:02:00,67.0,-99.9,-100.00,NW,306,4.0,-999.0,-999,0.00,,,0.53,,2013-06-10 14:02:00,
2013-06-10 09:13:00,67.0,-99.9,-100.00,NW,306,4.0,-999.0,-999,0.00,,,0.53,,2013-06-10 14:13:00,
2013-06-10 09:22:00,67.0,-99.9,-100.00,NW,306,4.0,-999.0,-999,0.00,,,0.53,,2013-06-10 14:22:00,
2013-06-10 09:32:00,66.0,-99.9,-100.00,NW,316,5.0,-999.0,-999,0.00,,,0.53,,2013-06-10 14:32:00,
2013-06-10 09:42:00,66.0,-99.9,-100.00,NW,316,5.0,-999.0,-999,0.00,,,0.53,,2013-06-10 14:42:00,
2013-06-10 09:52:00,66.0,-99.9,-100.00,NW,316,5.0,-999.0,-999,0.00,,,0.53,,2013-06-10 14:52:00,
2013-06-10 10:03:00,67.0,-99.9,-100.00,NW,325,4.0,-999.0,-999,0.00,,,0.53,,2013-06-10 15:03:00,
2013-06-10 10:13:00,67.0,-99.9,-100.00,NW,325,4.0,-999.0,-999,0.00,,,0.53,,2013-06-10 15:13:00,
2013-06-10 10:22:00,67.0,-99.9,-100.00,NW,325,4.0,-999.0,-999,0.00,,,0.53,,2013-06-10 15:22:00,
2013-06-10 10:33:00,67.0,-99.9,-100.00,NW,321,3.0,-999.0,-999,0.00,,,0.53,,2013-06-10 15:33:00,
2013-06-10 10:43:00,67.0,-99.9,-100.00,NW,321,3.0,-999.0,-999,0.00,,,0.53,,2013-06-10 15:43:00,
2013-06-10 10:53:00,67.0,-99.9,-100.00,NW,321,3.0,-999.0,-999,0.00,,,0.53,,2013-06-10 15:53:00,
2013-06-10 11:03:00,67.0,-99.9,-100.00,NNW,327,5.0,-999.0,-999,0.00,,,0.53,,2013-06-10 16:03:00,
2013-06-10 11:13:00,67.0,-99.9,-100.00,NNW,327,5.0,-999.0,-999,0.00,,,0.53,,2013-06-10 16:13:00,
2013-06-10 11:23:00,67.0,-99.9,-100.00,NNW,327,5.0,-999.0,-999,0.00,,,0.53,,2013-06-10 16:23:00,
2013-06-10 11:33:00,68.0,-99.9,-100.00,NW,314,6.0,-999.0,-999,0.00,,,0.53,,2013-06-10 16:33:00,
2013-06-10 11:43:00,68.0,-99.9,-100.00,NW,314,6.0,-999.0,-999,0.00,,,0.53,,2013-06-10 16:43:00,
2013-06-10 11:53:00,69.0,-99.9,-100.00,NW,325,10.0,-999.0,-999,0.00,,,0.53,,2013-06-10 16:53:00,
2013-06-10 12:03:00,69.0,-99.9,-100.00,NW,325,10.0,-999.0,-999,0.00,,,0.53,,2013-06-10 17:03:00,
2013-06-10 12:14:00,69.0,-99.9,-100.00,NW,325,10.0,-999.0,-999,0.00,,,0.53,,2013-06-10 17:14:00,
2013-06-10 12:27:00,69.0,-99.9,-100.00,NW,325,10.0,-999.0,-999,0.00,,,0.53,,2013-06-10 17:27:00,
2013-06-10 12:30:00,69.0,-99.9,-100.00,NNW,329,9.0,-999.0,-999,0.01,,,0.46,,2013-06-10 17:30:00,
2013-06-10 12:38:00,69.0,-99.9,-100.00,NW,315,7.0,-999.0,-999,0.01,,,0.52,,2013-06-10 17:38:00,
2013-06-10 12:48:00,69.0,-99.9,-100.00,NW,315,7.0,-999.0,-999,0.01,,,0.52,,2013-06-10 17:48:00,
2013-06-10 12:58:00,69.0,-99.9,-100.00,NW,315,7.0,-999.0,-999,0.01,,,0.52,,2013-06-10 17:58:00,
2013-06-10 13:08:00,69.0,-99.9,-100.00,NNW,329,9.0,-999.0,-999,0.01,,,0.46,,2013-06-10 18:08:00,
2013-06-10 13:14:00,69.0,-99.9,-100.00,NNW,329,9.0,-999.0,-999,0.01,,,0.46,,2013-06-10 18:14:00,
2013-06-10 13:25:00,69.0,-99.9,-100.00,NNW,329,9.0,-999.0,-999,0.01,,,0.46,,2013-06-10 18:25:00,
2013-06-10 14:03:00,70.0,-99.9,-100.00,NW,326,7.0,-999.0,-999,0.00,,,0.41,,2013-06-10 19:03:00,
2013-06-10 14:13:00,70.0,-99.9,-100.00,NW,326,7.0,-999.0,-999,0.00,,,0.41,,2013-06-10 19:13:00,
2013-06-10 14:23:00,70.0,-99.9,-100.00,NW,326,7.0,-999.0,-999,0.00,,,0.41,,2013-06-10 19:23:00,
2013-06-10 14:33:00,72.0,-99.9,-100.00,NW,317,8.0,-999.0,-999,0.00,,,0.40,,2013-06-10 19:33:00,
2013-06-10 14:43:00,72.0,-99.9,-100.00,NW,317,8.0,-999.0,-999,0.00,,,0.40,,2013-06-10 19:43:00,
2013-06-10 14:53:00,72.0,-99.9,-100.00,NW,317,8.0,-999.0,-999,0.00,,,0.40,,2013-06-10 19:53:00,
2013-06-10 15:03:00,71.0,-99.9,-100.00,NNW,329,7.0,-999.0,-999,0.00,,,0.40,,2013-06-10 20:03:00,
2013-06-10 15:13:00,71.0,-99.9,-100.00,NNW,329,7.0,-999.0,-999,0.00,,,0.40,,2013-06-10 20:13:00,
2013-06-10 15:23:00,71.0,-99.9,-100.00,NNW,329,7.0,-999.0,-999,0.00,,,0.40,,2013-06-10 20:23:00,
2013-06-10 15:32:00,72.0,-99.9,-100.00,NNW,336,9.0,-999.0,-999,0.00,,,0.40,,2013-06-10 20:32:00,
2013-06-10 15:43:00,72.0,-99.9,-100.00,NNW,336,9.0,-999.0,-999,0.00,,,0.40,,2013-06-10 20:43:00,
2013-06-10 15:53:00,75.0,-99.9,-100.00,NW,322,8.0,-999.0,-999,0.00,,,0.40,,2013-06-10 20:53:00,
2013-06-10 16:02:00,75.0,-99.9,-100.00,NW,322,8.0,-999.0,-999,0.00,,,0.40,,2013-06-10 21:02:00,
2013-06-10 16:13:00,75.0,-99.9,-100.00,NW,322,8.0,-999.0,-999,0.00,,,0.40,,2013-06-10 21:13:00,
2013-06-10 16:23:00,75.0,-99.9,-100.00,NW,322,8.0,-999.0,-999,0.00,,,0.40,,2013-06-10 21:23:00,
2013-06-10 16:30:00,75.0,-99.9,-100.00,NW,314,7.0,-999.0,-999,0.00,,,0.40,,2013-06-10 21:30:00,
2013-06-10 16:34:00,73.0,-99.9,-100.00,NW,321,7.0,-999.0,-999,0.00,,,0.40,,2013-06-10 21:34:00,
2013-06-10 16:43:00,73.0,-99.9,-100.00,NW,321,7.0,-999.0,-999,0.00,,,0.40,,2013-06-10 21:43:00,
2013-06-10 16:53:00,73.0,-99.9,-100.00,NW,321,7.0,-999.0,-999,0.00,,,0.40,,2013-06-10 21:53:00,
2013-06-10 17:03:00,75.0,-99.9,-100.00,NW,314,7.0,-999.0,-999,0.00,,,0.40,,2013-06-10 22:03:00,
2013-06-10 17:13:00,75.0,-99.9,-100.00,NW,314,7.0,-999.0,-999,0.00,,,0.40,,2013-06-10 22:13:00,
2013-06-10 17:23:00,75.0,-99.9,-100.00,NW,314,7.0,-999.0,-999,0.00,,,0.40,,2013-06-10 22:23:00,
2013-06-10 18:03:00,76.0,-99.9,-100.00,NW,325,4.0,-999.0,-999,0.00,,,0.40,,2013-06-10 23:03:00,
2013-06-10 18:12:00,76.0,-99.9,-100.00,NW,325,4.0,-999.0,-999,0.00,,,0.40,,2013-06-10 23:12:00,
2013-06-10 18:22:00,76.0,-99.9,-100.00,NW,325,4.0,-999.0,-999,0.00,,,0.40,,2013-06-10 23:22:00,
2013-06-10 18:32:00,77.0,-99.9,-100.00,NW,323,4.0,-999.0,-999,0.00,,,0.40,,2013-06-10 23:32:00,
2013-06-10 18:42:00,77.0,-99.9,-100.00,NW,323,4.0,-999.0,-999,0.00,,,0.40,,2013-06-10 23:42:00,
2013-06-10 18:52:00,77.0,-99.9,-100.00,NW,323,4.0,-999.0,-999,0.00,,,0.40,,2013-06-10 23:52:00,
2013-06-10 19:02:00,78.0,-99.9,-100.00,WNW,292,3.0,-999.0,-999,0.00,,,0.40,,2013-06-11 00:02:00,
2013-06-10 19:13:00,78.0,-99.9,-100.00,WNW,292,3.0,-999.0,-999,0.00,,,0.40,,2013-06-11 00:13:00,
2013-06-10 19:22:00,78.0,-99.9,-100.00,WNW,292,3.0,-999.0,-999,0.00,,,0.40,,2013-06-11 00:22:00,
2013-06-10 19:32:00,74.0,-99.9,-100.00,WSW,247,2.0,-999.0,-999,0.00,,,0.32,,2013-06-11 00:32:00,
2013-06-10 19:43:00,74.0,-99.9,-100.00,WSW,247,2.0,-999.0,-999,0.00,,,0.32,,2013-06-11 00:43:00,
2013-06-10 19:52:00,74.0,-99.9,-100.00,WSW,247,2.0,-999.0,-999,0.00,,,0.32,,2013-06-11 00:52:00,
2013-06-10 20:02:00,72.0,-99.9,-100.00,SW,234,2.0,-999.0,-999,0.00,,,0.02,,2013-06-11 01:02:00,
2013-06-10 20:12:00,72.0,-99.9,-100.00,SW,234,2.0,-999.0,-999,0.00,,,0.02,,2013-06-11 01:12:00,
2013-06-10 20:22:00,72.0,-99.9,-100.00,SW,234,2.0,-999.0,-999,0.00,,,0.02,,2013-06-11 01:22:00,
2013-06-10 20:33:00,71.0,-99.9,-100.00,SW,235,3.0,-999.0,-999,0.00,,,0.01,,2013-06-11 01:33:00,
2013-06-10 20:53:00,69.0,-99.9,-100.00,SW,219,2.0,-999.0,-999,0.00,,,0.01,,2013-06-11 01:53:00,
2013-06-10 21:03:00,69.0,-99.9,-100.00,SW,219,2.0,-999.0,-999,0.00,,,0.01,,2013-06-11 02:03:00,
2013-06-10 21:12:00,69.0,-99.9,-100.00,SW,219,2.0,-999.0,-999,0.00,,,0.01,,2013-06-11 02:12:00,
2013-06-10 21:23:00,69.0,-99.9,-100.00,SW,219,2.0,-999.0,-999,0.00,,,0.01,,2013-06-11 02:23:00,
2013-06-10 21:32:00,68.0,-99.9,-100.00,SW,233,1.0,-999.0,-999,0.00,,,0.01,,2013-06-11 02:32:00,
2013-06-10 21:43:00,68.0,-99.9,-100.00,SW,233,1.0,-999.0,-999,0.00,,,0.01,,2013-06-11 02:43:00,
2013-06-10 21:52:00,68.0,-99.9,-100.00,WSW,242,0.0,-999.0,-999,0.00,,,0.01,,2013-06-11 02:52:00,
2013-06-10 22:03:00,68.0,-99.9,-100.00,WSW,242,0.0,-999.0,-999,0.00,,,0.01,,2013-06-11 03:03:00,
2013-06-10 22:13:00,68.0,-99.9,-100.00,WSW,242,0.0,-999.0,-999,0.00,,,0.01,,2013-06-11 03:13:00,
2013-06-10 22:22:00,68.0,-99.9,-100.00,WSW,242,0.0,-999.0,-999,0.00,,,0.01,,2013-06-11 03:22:00,
2013-06-10 22:30:00,67.0,-99.9,-100.00,SW,216,0.0,-999.0,-999,0.00,,,0.01,,2013-06-11 03:30:00,
2013-06-10 22:33:00,67.0,-99.9,-100.00,SW,221,0.0,-999.0,-999,0.00,,,0.01,,2013-06-11 03:33:00,
2013-06-10 22:43:00,67.0,-99.9,-100.00,SW,221,0.0,-999.0,-999,0.00,,,0.01,,2013-06-11 03:43:00,
2013-06-10 22:53:00,67.0,-99.9,-100.00,SW,216,0.0,-999.0,-999,0.00,,,0.01,,2013-06-11 03:53:00,
2013-06-10 23:03:00,67.0,-99.9,-100.00,SW,216,0.0,-999.0,-999,0.00,,,0.01,,2013-06-11 04:03:00,
2013-06-10 23:13:00,67.0,-99.9,-100.00,SW,216,0.0,-999.0,-999,0.00,,,0.01,,2013-06-11 04:13:00,
2013-06-10 23:23:00,67.0,-99.9,-100.00,SW,216,0.0,-999.0,-999,0.00,,,0.01,,2013-06-11 04:23:00,